This is the latest recevied weather packets stored in our database for station/object N4AR. If no packets are shown the sender has not sent any weather packets the latest 10 day(s).
| Time | Temp. | Humidity | Pressure | Rain* | Wind** | Luminosity | Snow |
|---|---|---|---|---|---|---|---|
| 1778005785 | 30.56° C | 29% | 1014.7 hPa | 0 mm | - | 888 W/m² | - |
| 1778005482 | 30.56° C | 29% | 1014.8 hPa | 0 mm | - | 883 W/m² | - |
| 1778005178 | 31.11° C | 28% | 1014.9 hPa | 0 mm | - | 894 W/m² | - |
| 1778004876 | 30.56° C | 29% | 1014.7 hPa | 0 mm | - | 899 W/m² | - |
| 1778004573 | 30.56° C | 29% | 1014.7 hPa | 0 mm | - | 896 W/m² | - |
| 1778004269 | 30.56° C | 29% | 1014.8 hPa | 0 mm | - | 904 W/m² | - |
| 1778003966 | 30.56° C | 28% | 1014.8 hPa | 0 mm | - | 909 W/m² | - |
| 1778003662 | 30.56° C | 28% | 1014.9 hPa | 0 mm | - | 909 W/m² | - |
| 1778003358 | 30.56° C | 30% | 1014.8 hPa | 0 mm | - | 908 W/m² | - |
| 1778003056 | 30° C | 31% | 1014.8 hPa | 0 mm | - | 904 W/m² | - |
| 1778002752 | 30.56° C | 30% | 1015.1 hPa | 0 mm | - | 906 W/m² | - |
| 1778002448 | 30.56° C | 29% | 1015 hPa | 0 mm | - | 906 W/m² | - |
| 1778002145 | 30.56° C | 31% | 1015.2 hPa | 0 mm | - | 903 W/m² | - |
| 1778001843 | 29.44° C | 31% | 1014.8 hPa | 0 mm | - | 830 W/m² | - |
| 1778001543 | 29.44° C | 31% | 1015.2 hPa | 0 mm | - | 91 W/m² | - |
| 1778001240 | 29.44° C | 31% | 1014.9 hPa | 0 mm | - | 234 W/m² | - |
| 1778000936 | 28.89° C | 32% | 1015.1 hPa | 0 mm | - | 873 W/m² | - |
| 1778000634 | 29.44° C | 32% | 1015.1 hPa | 0 mm | - | 905 W/m² | - |
| 1778000329 | 29.44° C | 33% | 1015.3 hPa | 0 mm | - | 124 W/m² | - |
| 1778000024 | 28.89° C | 32% | 1015.5 hPa | 0 mm | - | 896 W/m² | - |
| 1777999720 | 28.89° C | 31% | 1015.5 hPa | 0 mm | - | 290 W/m² | - |
| 1777999417 | 28.89° C | 32% | 1015.6 hPa | 0 mm | - | 682 W/m² | - |
| 1777999115 | 28.89° C | 33% | 1015.7 hPa | 0 mm | - | 885 W/m² | - |
| 1777998814 | 28.89° C | 34% | 1015.8 hPa | 0 mm | - | 879 W/m² | - |
| 1777998512 | 28.89° C | 33% | 1015.8 hPa | 0 mm | - | 713 W/m² | - |
* Rain latest hour (hover to see other rain measurements)
** Current wind speed in m/s (hover to see current wind gust speed)